Location: Bussy-Saint-Martin
(48.8490°N, 2.6904°E)
Time: 12:22:23
(UTC+00:00)

Daily predictions for brighter satellites

Satellite Brightness Start Highest point End
(mag) Time Altitude Azimuth Time Altitude Azimuth Time Altitude Azimuth
Cosmos 1302 Rocket 4.1 20:15:00 10° NNW 20:20:13 73° ENE 20:25:26 10° SSE
Cosmos 2369 Rocket 4.2 20:16:44 10° NW 20:21:07 24° WSW 20:25:30 10° SSW
Cosmos 1603 3.9 20:19:46 10° SSW 20:25:27 85° WNW 20:31:14 10° NNE
SL-8 R/B 3.7 20:21:44 10° W 20:26:30 87° S 20:31:16 10° E
Okean 1 3.3 20:22:41 10° S 20:26:30 61° E 20:30:22 10° NNE
Okean 3 Rocket 4.4 20:24:54 10° NNW 20:29:09 51° W 20:33:22 10° S
Cosmos 1340 2.7 20:26:27 10° N 20:29:47 51° ENE 20:33:04 10° SSE
Cosmos 1726 2.7 20:27:02 10° NNW 20:30:01 44° W 20:32:59 10° SSW
SPOT 5 2.6 20:26:27 10° SSE 20:30:54 88° ENE 20:35:14 10° NNW
IRS-1A Rocket 4.3 20:25:35 10° SSE 20:31:08 76° ENE 20:36:39 10° NNW
Cosmos 1626 4.0 20:30:29 10° ESE 20:31:35 11° E 20:32:39 10° ENE
Cosmos 1975 3.9 20:34:37 10° N 20:38:06 29° ENE 20:41:27 11° SE
Spot 2 Rocket 3.8 20:34:38 10° SE 20:39:32 55° ENE 20:44:29 10° N
Landsat 4 3.9 20:37:56 10° SE 20:41:18 48° ENE 20:44:40 10° N
Cosmos 44 Rocket 4.4 20:37:06 10° NNW 20:41:44 37° NE 20:46:12 10° ESE
NOSS 8 (A) 4.4 20:39:59 10° SW 20:43:59 90° SSE 20:47:07 10° NE
Resurs 01 Rocket 3.9 20:41:09 10° SW 20:44:36 22° W 20:48:04 10° NW
Okean O Rocket 3.7 20:41:22 10° SSW 20:45:04 26° W 20:48:46 10° NW
Meteor 2-10 4.2 20:43:53 10° NNW 20:49:20 80° W 20:54:34 10° S
MetOp-B 4.5 20:44:16 10° S 20:49:35 66° WSW 20:54:56 10° NNW
Cosmos 1743 Rocket 3.6 20:46:00 10° N 20:50:27 89° NE 20:54:55 10° S
NOSS 3-3 (C) 4.1 20:47:07 10° S 20:52:12 44° ESE 20:58:06 10° NE
Cosmos 1536 3.9 20:50:44 10° NNW 20:54:26 41° W 20:58:09 10° SSW
Meteor 1-19 Rocket 4.3 20:53:03 10° S 20:58:53 89° WNW 21:04:33 10° NNE
Cosmos 1151 Rocket 3.0 20:54:45 10° S 20:59:02 66° E 21:03:20 10° NNE
Cosmos 1733 3.3 20:55:38 10° NNW 20:59:07 64° W 21:02:34 10° S
Ariane Rocket 3.0 20:58:00 11° SSE 21:02:54 82° ENE 21:08:01 10° NNW
USA 234 4.2 20:57:41 10° ENE 21:03:59 51° NNW 21:10:16 10° W
Cosmos 220 Rocket 3.9 21:01:51 10° SSW 21:06:10 78° ESE 21:10:29 10° NNE
USA 59 Rocket 0.8 21:03:31 10° NW 21:07:24 47° SW 21:12:00 13° SSE
Terra 1.9 21:04:44 10° S 21:09:23 75° WSW 21:14:07 10° NNW
Cosmos 1697 Rocket 3.4 21:05:01 10° NNW 21:10:25 44° NE 21:15:08 13° ESE
NOSS 2-1 (E) 4.4 21:06:53 10° NW 21:10:45 44° SW 21:15:16 13° SSE
Cosmos 1428 Rocket 4.5 21:05:39 10° S 21:11:40 67° E 21:17:44 10° NNE
ERS-1 Rocket 3.4 21:07:22 10° S 21:12:20 62° WSW 21:17:21 10° NNW
Cosmos 614 Rocket 4.0 21:08:16 10° SSW 21:13:29 88° WNW 21:18:45 10° NNE
Orbus 7S? 4.4 21:12:21 10° SSW 21:17:55 32° SE 21:21:03 10° ENE
Cosmos 1980 Rocket 3.6 21:15:52 10° NNW 21:20:52 30° NE 21:25:50 10° ESE
Lacrosse 5 rocket 2.8 21:17:26 10° NW 21:21:22 36° NNE 21:25:12 10° E
Cosmos 1328 Rocket 3.8 21:19:14 16° SSE 21:22:26 49° E 21:26:36 10° NNE
SPOT 3 Rocket 3.7 21:19:41 13° S 21:24:16 74° WSW 21:29:26 10° NNW
ARIANE 5 R/B 4.0 21:24:52 14° ESE 21:27:41 26° ENE 21:31:15 10° N
Cosmos 1818 3.6 21:22:20 10° SW 21:27:47 88° NW 21:33:19 10° NE
Cosmos 1092 Rocket 4.0 21:26:09 11° S 21:32:08 73° E 21:38:29 10° NNE
Cosmos 1515 Rocket 4.5 21:32:35 20° SE 21:34:44 31° E 21:38:34 10° NNE
IRIDIUM 106 4.3 21:30:46 10° N 21:36:02 83° E 21:40:03 17° S
Cosmos 2195 Rocket 4.5 21:31:12 10° S 21:37:19 89° W 21:43:29 10° N
Meteor 2-4 Rocket 3.9 21:35:06 10° SSW 21:41:02 87° W 21:47:01 10° NNE
Cosmos 1805 4.2 21:38:38 10° NNW 21:42:07 39° W 21:45:00 14° SSW
Cosmos 1269 Rocket 4.0 21:38:10 10° SSW 21:43:26 88° ESE 21:48:45 10° NNE
Cosmos 1470 Rocket 3.6 21:40:51 10° N 21:45:17 66° ENE 21:47:51 24° SSE
MOS 1 Rocket 4.2 21:41:45 13° S 21:46:17 52° W 21:51:35 10° NNW
Cosmos 1766 3.1 21:42:47 10° N 21:46:33 70° E 21:48:29 27° SSE
MetOp-A 3.9 21:43:44 20° S 21:47:05 82° WSW 21:52:14 10° NNW
Cosmos 1633 Rocket 3.1 21:42:41 10° NNW 21:47:07 77° W 21:50:02 21° S
Cosmos 2251 Rocket 4.5 21:50:21 22° SE 21:52:36 30° E 21:57:11 10° NE
Lacrosse 4 Rocket 3.0 21:50:33 10° NW 21:53:55 25° WSW 21:56:24 15° SSW
Cosmos 1666 Rocket 4.1 21:49:48 10° NNW 21:54:00 53° W 21:56:58 18° SSW
Cosmos 1656 4.4 21:49:23 10° NW 21:54:32 42° WSW 21:58:23 17° S
USA 281 3.2 21:50:16 20° SSE 21:55:05 81° WSW 22:01:44 10° NNW
Cosmos 1833 Rocket 2.6 21:50:04 10° SSW 21:55:33 71° ESE 22:01:10 10° NNE
DELTA 2 R/B (1) 4.3 21:54:17 10° WSW 21:59:12 32° S 22:01:39 22° SE
SL-16 R/B 4.3 21:57:43 10° N 22:01:48 20° NE 22:05:52 10° E
Cosmos 1470 3.0 21:58:29 10° N 22:02:05 49° ENE 22:03:31 30° SE
H-2A R/B 3.6 22:01:47 21° ESE 22:03:59 35° ENE 22:07:53 10° N
Cosmos 1626 2.7 22:02:28 17° SW 22:04:40 44° WNW 22:07:47 10° N
NOSS 3-3 (A) 4.3 22:02:55 10° SW 22:08:26 65° NW 22:14:58 10° NE
SL-8 R/B 3.9 22:04:10 10° W 22:08:47 53° SSW 22:11:06 27° SE
Cosmos 1023 Rocket 4.4 22:06:25 20° S 22:10:07 71° ESE 22:15:19 10° NNE
Cosmos 1933 Rocket 3.7 22:05:49 10° N 22:10:10 63° ENE 22:12:14 30° SSE
Meteor 2-12 Rocket 4.4 22:06:18 21° S 22:10:34 75° E 22:16:44 10° NNE
Cosmos 1908 3.8 22:07:19 10° N 22:10:44 40° ENE 22:11:54 30° ESE
Cosmos 2082 Rocket 3.2 22:09:01 24° SE 22:11:08 30° ESE 22:16:03 10° NE
GEOS 3 Rocket 3.7 22:08:29 10° NE 22:13:32 51° SE 22:16:53 20° SSW
Cosmos 1140 Rocket 3.4 22:12:53 20° SSW 22:16:30 75° ESE 22:21:43 10° NNE
Cosmos 1607 4.0 22:16:15 10° SW 22:22:43 88° SE 22:29:16 10° NE
Cosmos 44 Rocket 3.9 22:18:38 10° NW 22:23:18 43° WSW 22:25:22 27° S
NOSS 3-4 (A) 3.9 22:17:58 10° NW 22:24:48 78° SW 22:29:54 24° SSE
NOSS 3-4 (C) 3.9 22:18:04 10° NW 22:24:54 79° SW 22:30:01 24° SSE
MINOTAUR 4 R/B 3.4 22:25:57 10° NNE 22:28:55 73° ESE 22:29:16 61° SSE
ALOS 2 3.5 22:33:06 25° ESE 22:35:06 40° ENE 22:39:13 10° N
Cosmos 1707 2.4 22:34:34 42° S 22:35:44 89° E 22:39:23 10° N
Cosmos 1300 4.1 22:33:03 10° NNE 22:36:03 24° ENE 22:37:04 21° E
Meteor 1-13 Rocket 4.4 22:34:12 28° S 22:37:22 66° E 22:43:10 10° NNE
Cosmos 724 4.3 22:35:14 10° SW 22:41:09 82° NW 22:47:01 10° NE
Cosmos 1674 3.3 22:41:48 27° SW 22:43:16 45° WNW 22:46:40 10° N
Cosmos 540 Rocket 3.8 22:39:07 10° NNW 22:44:15 60° ENE 22:46:54 28° SE
USA 234 4.4 22:40:11 10° ENE 22:46:20 45° N 22:52:29 10° WNW
Cosmos 1441 Rocket 2.9 22:43:29 10° N 22:47:05 84° ENE 22:47:53 52° SSE
SL-08 ROCKET BODY 4.5 22:45:44 29° S 22:49:06 73° E 22:55:16 10° NNE
Cosmos 1763 Rocket 3.5 22:44:21 10° NNW 22:49:42 87° ENE 22:52:08 33° SSE
Meteor 1-22 Rocket 4.1 22:44:57 10° N 22:50:21 76° ENE 22:53:00 32° SSE
Cosmos 1400 Rocket 3.5 22:50:08 35° SE 22:50:55 39° E 22:54:38 10° NNE
S3M 4.0 22:44:48 10° N 22:51:14 86° W 22:54:44 29° S
CZ-3 Stage 3 4.2 22:29:55 10° WSW 22:51:40 31° SSW 22:55:14 25° SSE
Cosmos 468 Rocket 4.2 22:48:52 10° NNW 22:54:09 66° ENE 22:56:45 30° SE
Cosmos 1697 Rocket 3.6 22:49:13 10° NW 22:54:17 35° WSW 22:56:51 24° SSW
Cosmos 2322 Rocket 3.9 22:51:25 10° NNW 22:56:14 27° NE 23:01:02 10° ESE
In-Cosmos 22 4.2 22:54:37 30° S 22:57:35 82° E 23:03:18 10° NNE
Cosmos 1842 4.3 22:56:11 23° SW 22:57:54 37° WNW 23:01:21 10° N
Lacrosse 5 rocket 1.2 22:55:50 10° WNW 23:00:01 70° SW 23:01:06 46° SSE
H-2A R/B 3.5 22:57:13 10° NE 23:00:47 23° E 23:01:43 22° ESE
Cosmos 407 Rocket 3.7 22:57:53 22° SW 23:01:22 71° WNW 23:06:35 10° NNE
Aureole 3 4.4 23:03:48 22° E 23:03:49 22° E 23:06:25 10° NE
ARIANE 5 R/B 3.5 23:02:20 28° SW 23:03:55 38° W 23:07:58 10° NNW
PSLV R/B 4.4 23:00:48 10° N 23:04:46 54° WNW 23:06:35 29° SW
Cosmos 1980 Rocket 2.4 22:59:37 10° NW 23:05:15 59° WSW 23:07:42 33° S
Cosmos 1455 4.4 23:06:10 10° NNE 23:08:09 14° ENE 23:09:30 12° E
Meteor 1-15 Rocket 4.2 23:03:24 10° NNW 23:09:01 78° W 23:11:34 34° S
Cosmos 676 Rocket 4.4 23:07:42 34° SSE 23:09:35 50° ESE 23:14:44 10° NNE
Cosmos 1954 Rocket 4.1 23:07:39 35° S 23:09:43 61° ESE 23:14:57 10° NNE
Cosmos 2315 Rocket 4.0 23:07:41 10° N 23:14:02 84° W 23:17:17 31° S
Cosmos 2333 Rocket 4.0 23:09:50 10° NNW 23:14:43 28° NE 23:19:36 10° ESE
Cosmos 1190 Rocket 4.0 23:13:44 31° SSW 23:16:19 89° ESE 23:21:40 10° NNE
BREEZE-M DEB (TANK) 3.7 23:00:37 10° WSW 23:16:47 83° SSE 23:20:53 10° ENE
Cosmos 1733 Rocket 3.1 23:12:31 10° N 23:16:53 68° E 23:18:17 41° SSE
Cosmos 1953 4.0 23:14:09 10° NNE 23:17:20 23° ENE 23:18:50 19° ESE
ATLAS 2AS CENTAUR R/B 4.1 23:14:55 10° NW 23:21:16 36° NNE 23:27:23 10° E
SL-14 R/B 3.1 23:23:54 55° SSE 23:24:39 77° E 23:28:29 10° NNE
Cosmos 1869 Rocket 4.5 23:20:38 10° NNW 23:24:43 39° W 23:26:11 29° SW
Cosmos 1356 Rocket 3.7 23:24:19 44° SE 23:25:15 54° E 23:29:19 10° NNE
Okean 1-7 4.1 23:26:51 27° ESE 23:28:00 32° E 23:31:50 10° NNE
Cosmos 2266 Rocket 4.5 23:25:41 23° SW 23:29:34 55° WNW 23:35:47 10° N
Cosmos 2251 Rocket 4.5 23:30:45 16° SW 23:34:41 44° WNW 23:39:46 10° NNE
Cosmos 2369 4.2 23:29:51 10° NW 23:35:17 45° WSW 23:37:24 32° SSW
H-2A R/B 3.9 23:37:47 24° WSW 23:38:57 27° W 23:42:39 10° NW
RESURS DK-1 4.1 23:37:42 10° NNW 23:41:18 29° NE 23:44:22 13° ESE
Cosmos 2228 Rocket 3.2 23:40:26 39° SSW 23:42:00 70° W 23:46:33 10° N
Cosmos 2219 Rocket 4.1 23:38:05 10° NNW 23:42:49 26° NE 23:47:32 10° ESE
Cosmos 1758 3.7 23:41:04 10° NNW 23:44:47 47° W 23:45:30 41° SW
SL-16 R/B 2.2 23:41:08 10° NNW 23:46:51 79° ENE 23:49:56 28° SE
Meteor 1-16 Rocket 4.3 23:42:17 10° N 23:48:06 82° E 23:50:56 32° SSE
COSMOS 2406 3.5 23:45:23 24° SW 23:48:58 67° WNW 23:54:44 10° NNE
USA 267 4.0 23:45:59 10° ENE 23:51:46 33° SE 23:53:37 28° SSE
Meteor 2-10 Rocket 4.3 23:47:34 10° NNW 23:53:07 47° W 23:55:32 30° SSW
